User: anonymous   Login
Location: Unspecified
(0.0000°N, 0.0000°E)
Time: 16:40:28
(UTC+00:00)
Language:

EO-88 - Orbit

View from above orbital plane
View from above orbital plane
View from above satellite
View from above satellite

Ground track
Ground track

The orbit data is extracted from the following two-line orbital elements,

1 42017U 17008BX  18169.86861212 +.00001298 +00000-0 +55789-4 0  9997
2 42017 097.4480 234.9160 0007007 028.8165 331.3458 15.24451508074325
Epoch (UTC): 18 June 2018 20:50:48
Eccentricity: 0.0007007
inclination: 97.4480°
perigee height: 487 km
apogee height: 497 km
right ascension of ascending node: 234.9160°
argument of perigee: 28.8165°
revolutions per day: 15.24451508
mean anomaly at epoch: 331.3458°
orbit number at epoch: 7432

The dashed part of the orbit path shows where the satellite is in the earth's shadow,  

DLR